Location: Bolechowice
(50.1480°N, 19.7932°E)
Time: 16:16:04
(UTC+00:00)

Daily predictions for brighter satellites

Satellite Brightness Start Highest point End
(mag) Time Altitude Azimuth Time Altitude Azimuth Time Altitude Azimuth
Meteor 2-10 Rocket 3.8 19:29:54 10° NNW 19:34:58 70° W 19:40:10 10° S
USA 245 3.2 19:31:48 10° SSE 19:35:09 78° ENE 19:39:26 10° NNW
Cosmos 1400 Rocket 2.9 19:33:28 10° N 19:37:28 68° ENE 19:41:23 10° SSE
Cosmos 1758 Rocket 3.7 19:33:49 10° S 19:38:16 65° E 19:42:44 10° NNE
SPOT 5 3.5 19:35:23 10° SE 19:40:09 45° ENE 19:44:41 10° N
Lacrosse 5 rocket 3.0 19:38:41 10° W 19:42:41 37° NNW 19:46:29 10° NE
Cosmos 2181 Rocket 4.4 19:36:44 10° N 19:42:56 51° ENE 19:49:00 10° SSE
Spot 2 Rocket 3.6 19:37:54 10° SSE 19:42:59 87° WSW 19:48:08 10° NNW
BREEZE-M DEB (TANK) 4.4 19:40:22 10° SSW 19:43:09 15° SSE 19:44:54 10° ESE
ATLAS 5 CENTAUR R/B 3.8 19:42:39 10° W 19:45:14 22° NW 19:47:02 10° NNE
Cosmos 1745 Rocket 4.2 19:42:00 10° SSW 19:48:13 82° W 19:54:32 10° N
Landsat 7 3.9 19:44:01 10° SSE 19:48:47 84° WSW 19:53:35 10° NNW
USA 267 3.6 19:48:47 10° ESE 19:55:18 69° NNE 20:01:50 10° WNW
SPOT 1/Viking Rocket 3.6 19:52:00 10° SSE 19:57:10 85° WSW 20:02:22 10° NNW
Alouette 2 Rocket 3.7 19:56:53 10° NNW 20:00:37 76° WSW 20:05:31 10° S
Cosmos 1953 Rocket 3.6 19:57:08 10° S 20:01:22 61° E 20:05:39 10° NNE
Cosmos 2322 Rocket 3.3 19:57:55 10° SW 20:03:22 50° NW 20:08:51 10° NNE
NOSS 7 (D) 4.2 20:02:38 10° SW 20:05:24 64° NW 20:08:03 10° NE
Cosmos 2237 4.5 20:00:14 10° SW 20:05:58 77° WNW 20:11:45 10° NNE
Cosmos 2084 3.6 20:02:59 10° NW 20:07:28 75° NE 20:11:33 12° SE
Cosmos 1328 3.9 20:03:47 10° SSW 20:07:45 78° W 20:11:45 10° N
Cosmos 1842 Rocket 4.3 20:04:11 10° N 20:08:18 40° ENE 20:11:52 13° SE
SAR-Lupe-2 3.5 20:05:29 10° NNE 20:09:05 76° ESE 20:12:40 10° S
Cosmos 1455 3.9 20:08:07 10° NNW 20:11:31 31° W 20:14:56 10° SSW
Cosmos 1825 Rocket 4.0 20:12:43 10° SSW 20:17:08 66° WNW 20:21:36 10° N
ATLAS CENTAUR R/B 1.0 20:15:41 10° NW 20:19:25 90° NE 20:22:16 16° SE
Cosmos 1703 4.2 20:17:59 10° SSW 20:21:45 48° WNW 20:25:32 10° N
COSMOS 2428 2.9 20:17:35 10° S 20:23:03 52° ESE 20:28:34 10° NE
Cosmos 1844 4.4 20:18:37 10° NW 20:24:09 48° WSW 20:29:32 10° S
NOSS 3-4 (A) 4.3 20:17:49 10° NW 20:24:29 56° NE 20:31:52 10° ESE
NOSS 3-4 (C) 4.3 20:17:55 10° NW 20:24:35 56° NE 20:31:58 10° ESE
SL-24 R/B - RUBIN 2 4.5 20:20:02 10° SSW 20:26:09 80° SE 20:32:50 10° NE
Cosmos 2322 3.7 20:21:14 10° SSW 20:26:58 86° ESE 20:32:44 10° NNE
Meteor 1-27 4.3 20:24:48 10° NNW 20:30:33 86° W 20:35:46 13° S
Cosmos 1869 3.6 20:27:05 10° N 20:30:58 53° ENE 20:33:50 17° SSE
Cosmos 1709 Rocket 4.4 20:27:03 10° SSW 20:33:19 69° WNW 20:39:43 10° N
NOSS 3-3 (A) 4.0 20:29:51 10° SSW 20:35:37 60° SE 20:42:09 10° NE
NOSS 3-3 (C) 4.0 20:29:57 10° SSW 20:35:43 60° SE 20:42:16 10° NE
Terra 1.9 20:31:40 14° SSE 20:35:45 83° WSW 20:40:32 10° NNW
Cosmos 2237 Rocket 3.2 20:33:12 15° SSE 20:36:50 29° ESE 20:41:40 10° NE
CARTOSAT-1 4.2 20:32:57 11° S 20:36:59 51° W 20:41:13 10° NNW
Atlas Centaur 2 4.3 20:35:04 10° SSW 20:37:48 13° S 20:38:47 12° S
Cosmos 2333 4.3 20:33:07 10° SSW 20:38:47 82° WNW 20:44:32 10° NNE
Cosmos 2219 Rocket 2.1 20:33:32 10° SSW 20:39:07 75° ESE 20:44:44 10° NNE
Cosmos 2360 Rocket 3.3 20:35:50 10° SW 20:41:16 47° NW 20:46:46 10° NNE
Cosmos 1538 Rocket 4.0 20:36:30 10° SSW 20:41:51 78° ESE 20:47:12 10° NNE
Cosmos 2184 Rocket 4.1 20:42:26 14° S 20:47:53 66° E 20:54:09 10° NNE
Meteor 2-2 Rocket 4.3 20:42:45 10° N 20:48:39 81° ENE 20:53:04 18° SSE
Cosmos 2333 Rocket 2.2 20:43:14 10° SSW 20:48:56 89° NW 20:54:43 10° NNE
Thor Agena Rocket 4.5 20:45:20 10° NNE 20:49:53 31° E 20:52:43 18° SE
Cosmos 1315 Rocket 3.4 20:47:01 10° NNW 20:51:00 53° W 20:54:13 15° S
ATLAS 2AS CENTAUR R/B 3.1 20:44:51 10° NW 20:52:34 69° NE 20:59:01 13° SE
Cosmos 2221 2.6 20:55:05 10° NNW 20:59:29 78° W 21:02:29 20° S
GEOS 3 Rocket 4.4 20:56:12 10° NE 21:01:31 59° NW 21:06:48 10° WSW
ERS-1 Rocket 4.2 20:57:00 10° SSW 21:01:35 34° W 21:06:11 10° NNW
USA 215 3.2 20:58:05 10° ENE 21:04:41 78° SE 21:11:14 10° SW
Iridium 2 4.4 21:01:58 10° N 21:05:38 42° E 21:07:33 24° SE
EO 1 Del DPAF 4.1 21:05:09 10° NNE 21:08:34 32° E 21:09:59 24° SE
Cosmos 1892 2.7 21:07:02 24° S 21:09:09 67° E 21:12:57 10° NNE
Cosmos 2278 Rocket 2.3 21:03:36 10° NNW 21:09:18 75° WSW 21:13:09 21° SSE
ATLAS 5 CENTAUR R/B 3.2 21:09:35 10° WSW 21:13:39 39° NNW 21:18:17 10° NE
Cosmos 1606 4.3 21:11:59 10° NNE 21:15:17 26° ENE 21:17:19 17° ESE
Aureole 2 Rocket 3.7 21:13:20 10° N 21:15:42 24° ENE 21:17:00 18° E
Cosmos 158 Rocket 4.1 21:13:10 22° S 21:16:03 48° ESE 21:20:47 10° NNE
Cosmos 1943 Rocket 3.8 21:12:24 10° NNW 21:17:15 28° NE 21:22:05 10° ESE
SPOT 5 4.5 21:14:03 10° SSW 21:18:21 28° W 21:22:31 10° NW
SL-16 R/B 3.4 21:18:56 19° SE 21:21:12 25° ESE 21:25:43 10° NE
Lacrosse 5 rocket 3.1 21:18:51 10° WNW 21:22:36 32° N 21:26:09 10° ENE
Spot 4 3.9 21:20:00 24° SSE 21:22:55 75° ENE 21:27:42 10° NNW
Cosmos 2056 Rocket 3.8 21:18:40 10° NNW 21:24:05 68° ENE 21:27:39 22° SE
Nadezhda 3 Rocket 4.0 21:18:20 10° N 21:24:46 87° W 21:29:11 21° S
Cosmos 2058 2.9 21:25:00 21° SSW 21:27:41 79° W 21:31:51 10° N
Cosmos 2154 Rocket 4.0 21:23:04 19° S 21:27:43 83° E 21:33:58 10° N
Cosmos 1408 2.5 21:29:05 31° S 21:30:39 72° E 21:34:13 10° NNE
Cosmos 2341 Rocket 4.3 21:26:53 22° SSE 21:30:47 52° E 21:36:47 10° NNE
In-Cosmos 22 Rocket 4.2 21:29:55 16° SSW 21:34:10 73° WNW 21:39:31 10° N
Cosmos 2074 Rocket 4.4 21:29:15 11° SSW 21:35:10 59° WNW 21:41:20 10° N
USA 267 3.5 21:34:04 21° SSE 21:38:28 55° SW 21:44:55 10° WNW
Cosmos 1076 Rocket 3.7 21:36:08 21° SSW 21:38:55 70° WNW 21:43:11 10° N
Cosmos 1680 Rocket 3.5 21:35:42 18° SSW 21:39:39 83° ESE 21:45:01 10° NNE
CZ-4C R/B 4.0 21:39:39 10° NW 21:45:57 41° NNE 21:53:19 10° E
EO 1 Delta rocket 4.2 21:43:48 10° N 21:48:49 88° ESE 21:52:50 22° S
Cosmos 2151 3.0 21:47:18 30° S 21:49:19 69° E 21:53:35 10° NNE
COSMOS 2455 3.6 21:43:45 10° NNW 21:49:38 49° NE 21:55:19 11° ESE
SL-8 Rocket 4.3 21:46:21 24° SSE 21:49:59 54° E 21:55:58 10° NNE
Helios 1A 4.1 21:48:16 19° ESE 21:50:36 35° ENE 21:54:25 10° N
Cosmos 1452 Rocket 4.3 21:45:59 10° NNW 21:51:03 45° ENE 21:54:48 17° SE
ATLAS CENTAUR R/B 3.5 21:56:51 10° W 21:57:38 11° WSW 21:58:25 10° WSW
Cosmos 1825 2.2 21:58:08 32° SSW 21:59:47 79° W 22:03:36 10° N
ALOS 2 2.5 21:58:03 31° SSE 22:00:09 86° ENE 22:04:35 10° NNW
Cosmos 1408 Rocket 4.4 21:58:51 26° SE 22:00:35 37° E 22:04:38 10° NNE
Cosmos 1340 3.6 21:59:38 28° SE 22:00:41 33° E 22:04:06 10° NNE
Cosmos 1933 3.6 21:56:43 10° N 22:00:43 58° ENE 22:02:24 31° SE
Cosmos 1151 Rocket 3.2 21:56:55 10° N 22:01:15 65° ENE 22:03:13 31° SSE
Cosmos 2369 Rocket 3.4 21:56:34 10° NNW 22:01:47 37° NE 22:06:57 10° ESE
Cosmos 1980 3.9 21:56:55 12° SW 22:02:14 70° WNW 22:07:54 10° NNE
APEX 3.5 22:01:41 10° NNW 22:04:17 36° NE 22:05:07 28° E
Cosmos 44 3.4 22:05:15 33° SSE 22:06:38 45° ESE 22:10:53 10° NE
COSMOS 2428 4.3 22:02:26 10° WSW 22:07:34 34° NW 22:12:45 10° NNE
Cosmos 371 Rocket 3.3 22:04:16 10° NNW 22:09:10 76° ENE 22:11:47 27° SSE
GP-B 3.1 22:04:55 10° N 22:09:23 79° E 22:11:23 32° S
Terra 4.2 22:12:28 10° WSW 22:14:15 12° W 22:16:03 10° WNW
Cosmos 1624 Rocket 4.4 22:09:23 10° NNW 22:14:27 50° WSW 22:16:57 27° SSW
NOSS 3-4 (A) 4.2 22:08:49 10° NW 22:15:29 49° WSW 22:19:47 24° S
NOSS 3-4 (C) 4.2 22:08:55 10° NW 22:15:36 49° WSW 22:19:55 24° S
Helios 1B rocket 4.3 22:14:50 10° NE 22:17:42 18° E 22:19:04 16° ESE
Nimbus 7 Rocket 4.4 22:12:38 10° NNE 22:18:38 90° ESE 22:22:22 24° SSW
SL-4 R/B 1.4 22:19:54 45° N 22:19:54 45° N 22:21:30 10° N
Cosmos 2237 Rocket 2.8 22:14:59 10° SW 22:20:35 57° NW 22:26:14 10° NNE
Genesis I 3.4 22:18:36 18° SW 22:21:20 68° NW 22:25:15 10° NE
Cosmos 1782 3.6 22:18:03 10° N 22:21:52 43° ENE 22:23:34 27° SE
IRIDIUM 106 4.3 22:19:31 29° S 22:22:16 85° E 22:27:31 10° N
CREW DRAGON DEMO-1 DEB 2.8 22:22:53 57° SE 22:22:53 57° SE 22:25:47 10° ENE
Cosmos 2344 3.5 22:16:01 10° SW 22:23:27 85° SE 22:31:46 10° NE
Cosmos 2219 Rocket 4.2 22:19:00 10° W 22:23:39 26° NW 22:28:21 10° NNE
Cosmos 1346 Rocket 3.4 22:28:04 33° SE 22:29:17 44° E 22:33:03 10° NNE
Thor Agena Rocket 4.5 22:24:29 10° N 22:29:19 43° WNW 22:33:18 14° SW
Cosmos 2333 Rocket 4.5 22:29:32 10° W 22:34:01 23° NW 22:38:34 10° NNE
RESURS DK-1 3.6 22:36:11 10° NNW 22:40:04 38° NE 22:43:24 13° ESE
Cosmos 1515 Rocket 3.5 22:37:04 10° N 22:41:26 86° W 22:43:15 35° S
BREEZE-M DEB (TANK) 3.3 22:40:07 10° W 22:41:21 18° WSW 22:41:21 18° WSW
ATLAS 2AS CENTAUR R/B 3.6 22:36:25 10° NW 22:43:06 36° WSW 22:46:25 24° SSW
Cosmos 1766 Rocket 4.2 22:44:24 25° SW 22:46:39 49° WNW 22:50:57 10° N
USA 215 3.9 22:41:11 10° ENE 22:47:35 57° NNW 22:53:57 10° W
Cosmos 1328 Rocket 4.1 22:44:37 10° NNW 22:48:44 44° W 22:50:25 29° SW
Aureole 2 Rocket 3.9 22:47:05 10° WNW 22:48:59 19° W 22:48:59 19° W
Gbstr 26 Del rocket 3.2 22:49:28 38° SSE 22:49:51 39° SE 22:53:48 10° ENE
Cosmos 1606 4.0 22:47:36 10° NNW 22:51:01 30° W 22:52:19 24° SW
Cosmos 2278 Rocket 4.3 22:49:50 10° WNW 22:52:22 13° W 22:54:55 10° WSW
Cosmos 2297 4.4 22:49:19 10° NW 22:54:40 41° WSW 22:57:11 27° SSW
Cosmos 2218 Rocket 4.2 22:50:54 23° SSW 22:54:57 66° WNW 23:01:15 10° N
Cosmos 304 Rocket 3.7 22:50:45 10° NNW 22:55:36 86° WSW 22:58:03 29° SSE
Cosmos 2228 Rocket 3.2 22:52:31 10° N 22:57:08 78° E 22:59:19 31° SSE
Cosmos 1943 4.2 22:56:06 23° SSE 22:58:40 33° ESE 23:03:40 10° NE
Cosmos 1862 4.3 22:58:33 26° SE 23:00:03 35° E 23:03:43 10° NNE
Cosmos 2366 rocket 4.3 22:56:35 23° SSW 23:00:38 63° WNW 23:06:59 10° N
Cosmos 1943 Rocket 2.2 22:55:52 10° NNW 23:01:32 70° WSW 23:04:40 27° SSE
Lacrosse 5 rocket 1.4 22:58:14 10° NW 23:02:15 70° NNE 23:06:02 10° ESE
Cosmos 1633 2.5 23:01:11 42° SSW 23:02:18 82° WNW 23:05:57 10° N
Landsat 4 3.6 22:58:50 10° NNE 23:02:39 89° ESE 23:03:59 39° SSW
SL-16 R/B 2.5 23:00:47 19° SW 23:04:51 65° WNW 23:10:33 10° NNE
Cosmos 1821 Rocket 4.0 23:05:52 26° S 23:09:27 71° E 23:15:31 10° NNE
Cosmos 2123 Rocket 4.4 23:04:44 10° N 23:10:51 56° ENE 23:15:27 18° SSE
Cosmos 1743 Rocket 3.5 23:12:36 33° SSW 23:14:29 77° W 23:18:51 10° N
Sich 1 3.9 23:15:28 25° SE 23:17:28 41° E 23:21:33 10° NNE
Cosmos 1331 Rocket 4.0 23:14:48 10° NNW 23:20:09 86° ENE 23:23:39 22° SSE
Cosmos 1048 Rocket 4.0 23:19:32 28° SSW 23:22:27 89° ESE 23:27:44 10° NNE
Meteor 2-3 Rocket 4.3 23:21:02 21° SW 23:24:37 49° WNW 23:30:10 10° N
Helios 1A 4.3 23:24:53 23° SW 23:26:13 27° W 23:29:48 10° NW
Meteor 1-29 3.3 23:24:49 10° NNE 23:28:08 53° E 23:29:10 36° SSE
Cosmos 405 4.0 23:25:06 10° NNW 23:28:20 33° W 23:29:08 29° WSW
Meteor 1-10 Rocket 4.1 23:26:52 10° NNW 23:32:29 81° W 23:35:50 25° S
SL-4 R/B 3.7 23:32:31 12° ESE 23:32:35 12° ESE 23:33:42 10° E
PSLV R/B 3.6 23:30:19 10° N 23:34:32 69° WNW 23:36:34 29° SSW
Meteor 2-6 Rocket 4.2 23:29:26 10° NNW 23:34:54 66° W 23:37:54 26° S
CZ-4C R/B 2.9 23:28:06 10° NW 23:35:12 80° SW 23:43:25 10° SE
Cosmos 389 Rocket 3.2 23:31:48 10° N 23:35:14 47° ENE 23:37:05 23° SE
COSMOS 2455 3.4 23:29:55 10° NW 23:35:31 41° WSW 23:38:24 25° SSW
Cosmos 1110 Rocket 4.1 23:32:00 10° NNW 23:37:14 65° WSW 23:40:16 25° S
SL-16 R/B 3.2 23:31:50 10° SE 23:37:51 54° ENE 23:43:56 10° N
Cosmos 1603 3.7 23:36:25 26° SSW 23:39:43 76° ESE 23:45:28 10° NNE
IRAS Rocket 4.4 23:37:09 17° SSE 23:41:29 74° ENE 23:46:59 10° NNW
Cosmos 1269 Rocket 4.4 23:39:58 25° S 23:42:53 56° ESE 23:48:04 10° NNE
Resurs 1-4 Rocket 3.2 23:40:11 10° NNE 23:45:03 35° E 23:48:45 16° SSE
Cosmos 2369 Rocket 2.6 23:40:36 10° NW 23:45:56 46° WSW 23:48:49 25° SSW
Cosmos 1666 Rocket 4.0 23:44:14 25° SSE 23:46:37 56° E 23:50:56 10° NNE
Cosmos 1500 Rocket 4.4 23:44:49 23° SW 23:47:06 40° WNW 23:51:16 10° N
SeaSat 1 3.2 23:43:58 10° NE 23:48:39 41° ESE 23:51:20 23° S
ISS -2.6 23:51:00 27° SSE 23:51:03 27° SE 23:53:58 10° E
Helios 1B rocket 2.9 23:49:15 10° N 23:53:16 52° WNW 23:55:23 25° SW
ADEOS II 4.2 23:52:32 10° NE 23:56:12 19° E 23:59:49 10° SE
